Weather in Zhytomyr

Ukraine / Zhytomyr Region     50°15′16″N   28°39′31″E
temp.,
°C
wind,
m/s
gust,
m/s
humid.,
%
clouds,
%
prec.,
mm/h
press.,
hPa
HPBL,
m
23 september, thu
thu2300:00+5nw4692100 0.2 1016765
03:00+5nw4696100 0.3 1016852
06:00+5nw4796100 0.5 1016871
09:00+6wnw4795100 0.9 1016922
12:00+7wnw5791100 0.4 1016908
15:00+8wnw4781100 0.6 1015983
18:00+9wsw2581100 0.2 1014287
21:00+7sw4890100 0.3 1013157
24 september, fri
fri2400:00+8ssw4995100 1.1 1010375
03:00+9sw71589100 2.3 1007612
06:00+9sw91988100 3.1 1004883
09:00+10wsw91891100 5.8 10011163
12:00+13wnw91470100 0.9 10031616
15:00+11wnw8147498 1.0 10041207
18:00+12w9156623 0.0 10041270
21:00+10w91671100 0.1 10061411
25 september, sat
sat2500:00+9wnw8157590 0.0 1008974
03:00+10wnw8137597 0.0 10091059
06:00+9wnw71379100 0.0 1011836
09:00+10wnw71273100 0.0 1012681
12:00+10w51178100 0.1 1013569
15:00+15w91169100 0.1 10131098
18:00+14w6137993 0.0 1014694
21:00+14w61482100 0.0 1015693
26 september, sun
sun2600:00+14wnw61286100 0.2 1015658
03:00+14wnw61382100 0.3 1016533
06:00+13nw5118567 0.1 1017653
09:00+12nw59780 0.1 1019725
12:00+16nnw57570 0.0 10191104
15:00+17nnw56514 0.0 10191385
18:00+15n47625 0.0 1020297
21:00+9ene35895 0.0 1021102
27 september, mon
mon2700:00+8e118848 0.0 102210
03:00+7nw22897 0.0 102212
06:00+6n229223 0.0 102313
09:00+9nne23705 0.0 1023195
12:00+13ene334955 0.0 10221476
15:00+14ne334766 0.0 10221633
18:00+12ne576096 0.0 1023490
21:00+10ene3768100 0.0 1024273